Home   Weather   Tsu   Past weeks

Flag for Japan Past Weather in Tsu, Japan — Yesterday and Last 2 Weeks

Now
59 °F

Partly sunny.


Feels Like: 57 °F
Forecast: 44 / 54 °F
Wind: 8 mph from Northwest

Location: Tsu

Current Time: Dec 5, 2016 at 9:46:39 am

Latest Report: Dec 5, 2016 at 9:00 am


Visibility: 13 mi

Pressure: 30.02 "Hg

Humidity: 65%

Dew Point: 47 °F

Location of TsuLocation

Past Weather in Tsu — Graph

°F

Tsu Temperature Yesterday

Maximum temperature yesterday: 57 °F (at 4:00 pm)
Minimum temperature yesterday: 46 °F (at 3:00 am)
Average temperature yesterday: 52 °F

High & Low Weather Summary for the Past Weeks

 TemperatureHumidityPressure
High72 °F (Nov 20, 12:00 pm)91% (Nov 22, 12:00 am)30.48 "Hg (Nov 22, 12:00 am)
Low41 °F (Nov 25, 6:00 am)38% (Dec 2, 1:00 pm)29.82 "Hg (Nov 22, 2:00 pm)
Average53 °F66%30.14 "Hg
* Reported Nov 20 8:00 am — Dec 5 8:00 am, Tsu, Weather by CustomWeather, © 2016

Note: Actual official high and low records may vary slightly from our data, if they occured in-between our weather recording intervals... More about our weather records

Advertising

Tsu Weather History for the Previous 24 Hours

Scroll right to see more
 ConditionsComfort  
Time TempWeatherWind HumidityBarometerVisibility
8:00 am
Mon, Dec 5
56 °FCool.6 mph76%30.01 "HgN/A
7:00 am55 °FCool.8 mph81%29.99 "HgN/A
6:00 am55 °FCool.1 mph79%29.96 "HgN/A
5:00 am55 °FCool.3 mph82%29.96 "HgN/A
4:00 am55 °FCool.3 mph82%29.95 "HgN/A
3:00 am54 °FCool.6 mph86%29.93 "HgN/A
2:00 am56 °FCool.5 mph85%29.95 "HgN/A
1:00 am52 °FCool.3 mph90%29.95 "HgN/A
12:00 am52 °FCool.3 mph90%29.96 "HgN/A
11:00 pm
Sun, Dec 4
52 °FCool.5 mph90%29.96 "HgN/A
10:00 pm53 °FCool.6 mph90%29.98 "HgN/A
9:00 pm53 °FSprinkles. Overcast.2 mph90%29.98 "Hg2 mi
8:00 pm53 °FCool.5 mph89%30.02 "HgN/A
7:00 pm53 °FCool.5 mph88%30.05 "HgN/A
6:00 pm53 °FCool.6 mph85%30.06 "HgN/A
5:00 pm55 °FCool.3 mph80%30.08 "HgN/A
4:00 pm57 °FCool.3 mph67%30.09 "HgN/A
3:00 pm56 °FOvercast.1 mph66%30.09 "Hg6 mi
2:00 pm55 °FCool.2 mph66%30.11 "HgN/A
1:00 pm56 °FCool.3 mph65%30.13 "HgN/A
12:00 pm56 °FCool.3 mph61%30.16 "HgN/A
11:00 am55 °FCool.3 mph69%30.19 "HgN/A
10:00 am53 °FCool.2 mph67%30.23 "HgN/A
9:00 am52 °FOvercast.1 mph68%30.25 "Hg6 mi
Weather by CustomWeather, © 2016

See weather overviewHow to use our weather pages